Weather in Tierp

Sweden     60°20′36″N   17°30′53″E
temp.,
°C
wind,
m/s
gust,
m/s
humid.,
%
clouds,
%
prec.,
mm/h
press.,
hPa
HPBL,
m
10 august, wed
wed1023:00+15sw2877100 0.0 1025179
02:00+14sw21080100 0.0 1025241
05:00+13ssw31081100 0.0 1024281
08:00+17sw41071100 0.0 1024437
11:00+19sw486198 0.0 1023653
14:00+25sw4744100 0.0 10221558
17:00+26wsw4641100 0.0 10211914
20:00+22sw4956100 0.0 1020637
11 august, thu
thu1123:00+18sw41269100 0.0 1020453
02:00+16sw41277100 0.0 1019436
05:00+15sw4128486 0.0 1019439
08:00+18wsw487399 0.0 1018464
11:00+24wsw4646100 0.0 1018928
14:00+29wsw463099 0.0 10171780
17:00+29wsw4628100 0.0 10172245
20:00+23sw3747100 0.0 1017200
12 august, fri
fri1223:00+18wsw27650 0.0 1019148
02:00+15wsw25790 0.0 1019102
05:00+13w12885 0.0 102024
08:00+18ne467330 0.0 1021613
11:00+20ne45520 0.0 10231024
14:00+22ne33455 0.0 10231303
17:00+21ene32464 0.0 10231298
20:00+17ene36640 0.0 1024313
13 august, sat
sat1323:00+12ese25910 0.0 1023119
02:00+12se25910 0.0 1022115
05:00+11sse24952 0.0 102177
08:00+18s25755 0.0 1020323
11:00+25sw35405 0.0 10191033
14:00+29sw462841 0.0 10171835
17:00+29sw463072 0.0 10162127
20:00+23sw2648100 0.0 1016119
14 august, sun
sun1423:00+18ssw255873 0.0 101681
02:00+15wsw22657 0.0 101638
05:00+14wsw117246 0.0 101612
08:00+19nnw236118 0.0 1016280
11:00+25nw12455 0.0 1016922
14:00+28n23349 0.0 10151808
17:00+22nne556157 0.0 1015488
20:00+17ne378284 0.0 1015272